Location: ???????????
(55.5758°N, 38.4970°E)
Time: 16:48:08
(UTC+00:00)

Cosmos 1980 - Pass Details

Date: 15 November 2025
Orbit: 836 x 847 km, 71.0° (Epoch: 14 December)

Event Time Altitude Azimuth Distance (km) Brightness Sun altitude
Exits shadow 03:22:27 17° 260° (W) 2,034 5.1 -13.6°
Maximum altitude 03:26:22 37° 321° (NW) 1,289 4.3 -13.0°
Drops below altitude 10° 03:31:38 10° 28° (NNE) 2,480 6.3 -12.3°
Sets 03:34:18 0° 37° (NE) 3,420 7.2 -11.9°
